STARLINK-31699 (59551 NORAD) Tracking and Keplerian Element Data

This shows tracking and keplerian element data for the satellite.

Feedback or suggestion? Click here.




ElementValue
Catalog59551
NameSTARLINK-31699
Epoch Orbit897
Epoch Day159.91846268
Epoch Year2024
RAAN28.2857
Inclination43.0009
Eccentricity0.0002158
Argument of Perigee267.7449
Mean Anonmoly92.316
Mean Motion15.40713053
Decay Rate0.00019401
L11 59551U 24074T 24159.91846268 .00019401 00000+0 47030-3 0 9998
L22 59551 43.0009 28.2857 0002158 267.7449 92.3160 15.40713053 8974



Live tracking and technical data element details for STARLINK-31699 (NORAD 59551). STARLINK-31699 can be tracked NOW for your location showing map with azimuth and elevation plus other details from your city location.







IsCatalogInMostPopularTable: catalog: 59551, numindb: 12
Update: records affected: 1



GetName: 59551 STARLINK-31699

Hit Count: updated at: Fri, 14 Jun 2024 18:22:49 GMT